Search result: Courses in Autumn Semester 2018

Chemical Engineering Bachelor Information
Bachelor Studies (Programme Regulations 2018)
1. Semester
Compulsory Subjects First Year Examinations
NumberTitleTypeECTSHoursLecturers
529-0011-02LGeneral Chemistry (Inorganic Chemistry) IO3 credits2V + 1U
529-0011-02 VAllgemeine Chemie I (AC)
Achtung! Die Vorlesungen der Allgemeinen Chemie (AC/PC/OC) werden im Blockkonzept durchgeführt. Beachten Sie die Daten für die Anorganische Chemie:
Weitere Informationen: Link
2 hrs
Tue07:45-09:30HCI G 7 »
A. Togni
529-0011-02 UAllgemeine Chemie I (AC)
oder nach Vereinbarung
1 hrs
Mon07:45-08:30HCI D 2 »
07:45-08:30HCI D 8 »
07:45-08:30HCI H 2.1 »
07:45-08:30HCI H 8.1 »
07:45-08:30HCI J 4 »
07:45-08:30HCI J 7 »
07:45-08:30HIT H 42 »
Mon/208:45-09:30HCI D 4 »
08:45-09:30HCI F 2 »
08:45-09:30HIT H 51 »
08:45-09:30HIT J 52 »
Mon09:45-10:30HCI D 4 »
09:45-10:30HCI F 2 »
09:45-10:30HIL E 8 »
09:45-10:30HIT F 12 »
09:45-10:30HIT H 42 »
10:45-11:30HCI J 8 »
Mon/210:45-11:30HIL B 21 »
Mon10:45-11:30HIL D 60.1 »
Mon/210:45-11:30HIL E 5 »
Fri10:45-11:30HPK D 24.2 »
30.10.09:45-11:30HCI J 8 »
A. Togni
529-0011-03LGeneral Chemistry (Organic Chemistry) IO3 credits2V + 1U
529-0011-03 VAllgemeine Chemie I (OC)
Achtung! Die Vorlesungen der Allgemeinen Chemie (AC/PC/OC) werden im Blockkonzept durchgeführt. Beachten Sie die Daten für die Organische Chemie:
Weitere Informationen: Link
2 hrs
Fri07:45-09:30HCI G 3 »
P. Chen
529-0011-03 UAllgemeine Chemie I (OC)
oder nach Vereinbarung
1 hrs
Mon08:45-09:30HCI D 2 »
08:45-09:30HCI J 4 »
08:45-09:30HCP E 47.2 »
08:45-09:30HIT H 42 »
08:50-09:35HIL B 21 »
10:45-11:30HIL C 10.2 »
10:45-11:30HIT F 11.1 »
10:45-11:30HIT F 12 »
10:45-11:30HIT H 42 »
Thu13:45-14:30HIT H 42 »
24.09.08:45-09:30HCI D 8 »
P. Chen
529-0011-01LGeneral Chemistry (Physical Chemistry) I Information O3 credits2V + 1U
529-0011-01 VAllgemeine Chemie I (PC)
Achtung! Die Vorlesungen der Allgemeinen Chemie (AC/PC/OC) werden im Blockkonzept durchgeführt. Beachten Sie die Daten für die Organische Chemie:
Weitere Informationen: Link
2 hrs
Wed10:15-12:00HG G 5 »
H. J. Wörner, M. Reiher
529-0011-01 UAllgemeine Chemie I (PC)1 hrs
Mon08:45-09:30HCP E 47.1 »
11:45-12:30HCI J 6 »
Thu11:45-12:30HCI E 2 »
11:45-12:30HCI J 6 »
12:45-13:30HIL B 21 »
16:45-17:30HCI D 8 »
16:45-17:30HIL E 10.1 »
16:45-17:30HIL F 10.3 »
Fri09:45-10:30HCI D 4 »
09:45-10:30HCI D 6 »
09:45-10:30HCI E 2 »
09:45-10:30HCI E 8 »
09:45-10:30HCI F 2 »
09:45-10:30HCI F 8 »
09:45-10:30HIT H 51 »
09:45-10:30HPK D 24.2 »
11:45-12:30HCI D 4 »
11:45-12:30HCI E 2 »
11:45-12:30HCI E 8 »
20.09.11:45-12:30HCI D 2 »
11:45-12:30HIL E 5 »
16:45-17:30HCI D 4 »
16:45-17:30HCI D 6 »
16:45-17:30HCI F 2 »
16:45-17:30HCI F 8 »
16:45-17:30HCI H 8.1 »
16:45-17:30HIT F 11.1 »
16:45-17:30HIT F 13 »
16:45-17:30HIT F 32 »
16:45-17:30HIT H 42 »
21.09.11:45-12:30HCI D 6 »
11:45-12:30HCI F 2 »
11:45-12:30HCI F 8 »
11:45-12:30HCI H 8.1 »
11:45-12:30HCI J 8 »
24.09.16:45-17:30HCI E 2 »
16:45-17:30HIL D 10.2 »
27.09.16:45-17:30HCI D 4 »
16:45-17:30HCI E 8 »
16:45-17:30HCI F 2 »
16:45-17:30HCI F 8 »
16:45-17:30HCI J 8 »
16:45-17:30HIT F 11.1 »
16:45-17:30HIT F 13 »
16:45-17:30HIT F 32 »
16:45-17:30HIT H 42 »
16:45-17:30HIT H 51 »
28.09.11:45-12:30HCI D 6 »
11:45-12:30HCI F 2 »
11:45-12:30HCI F 8 »
11:45-12:30HCI H 8.1 »
11:45-12:30HCI J 8 »
01.10.16:45-17:30HCI E 2 »
16:45-17:30HIL D 10.2 »
20.11.14:45-16:30HCI E 2 »
10.12.11:45-12:30HCI J 8 »
H. J. Wörner, M. Reiher
402-0043-00LPhysics IO4 credits3V + 1U
402-0043-00 VPhysics I (Physik I)
Die Vorlesungsunterlagen sind auf Deutsch verfügbar.
Die Vorlesung wird aufgezeichnet und den Studierenden zur Verfügung gestellt.
3 hrs
Tue14:45-15:30HPH G 3 »
Thu14:45-16:30HPH G 3 »
J. Home
402-0043-00 UPhysik I
Di 16-17 für Studiengang Rechnergestützte Wissenschaften. [nur 3 Übungsgruppen RW?]
Mi 9-10 (oder Di 16-17 als Ausweichtermin) für Studiengänge Chemie bzw. Chemieingenieurwissenschaften sowie Interdisziplinäre Naturwissenschaften.
1 hrs
Tue15:45-16:30HCI D 2 »
15:45-16:30HCI D 8 »
15:45-16:30HIL F 10.3 »
15:45-16:30HIT F 11.1 »
Wed09:15-10:00CAB G 56 »
09:15-10:00HG E 33.3 »
09:15-10:00HG E 33.5 »
09:15-10:00HG F 26.3 »
09:15-10:00HG G 26.3 »
09:15-10:00ML H 41.1 »
09:15-10:00ML J 34.1 »
09:15-10:00ML J 34.3 »
J. Home
401-0271-00LMathematical Foundations I: Analysis AO5 credits3V + 2U
401-0271-00 VGrundlagen der Mathematik I (Analysis A)3 hrs
Tue09:45-11:30HCI G 7 »
Wed08:15-09:00HG E 5 »
L. Kobel-Keller
401-0271-00 UGrundlagen der Mathematik I (Analysis A)
Mo 8-10 oder Mo 10-12 gemäss Gruppeneinteilung.
2 hrs
Mon07:45-09:30HCI F 8 »
07:45-09:30HIT J 51 »
07:45-09:30HIT K 51 »
07:45-09:30HIT K 52 »
09:45-11:30HCI F 8 »
09:45-11:30HIT J 51 »
09:45-11:30HIT K 51 »
09:45-11:30HIT K 52 »
L. Kobel-Keller
529-0001-00LIntroduction to Computer Science Information O4 credits2V + 2U
529-0001-00 VInformatik I2 hrs
Thu07:45-09:30HPH G 2 »
P. H. Hünenberger
529-0001-00 UInformatik I2 hrs
Tue12:45-14:30HCI D 267.4 »
12:45-14:30HIT F 21 »
15:45-17:30HCI D 267.4 »
15:45-17:30HIT F 21 »
Thu09:45-11:30HCI D 267.4 »
09:45-11:30HIT F 21 »
12:45-14:30HCI D 267.4 »
12:45-14:30HIT F 21 »
Fri09:45-11:30HCI D 267.4 »
09:45-11:30HIT F 21 »
P. H. Hünenberger
Laboratory Courses
NumberTitleTypeECTSHoursLecturers
529-0011-04LPractical Course General Chemistry Restricted registration - show details
Latest online enrolment is 21 September 2018.

Information about the practical course will be given on the first day.
O8 credits12P
529-0011-04 PAllgemeine Chemie (Praktikum) Special students and auditors need a special permission from the lecturers.
Ferienpraktikum n. V. für Interdisziplinäre Naturwissenschaften kann alternativ nach dem 1. Semester oder während des 1. Semesters besucht werden.
Für Phys.-Chem. Richtung prinzipiell auch während des 3. Semesters.
Ferienpraktikum n. V. Woche 1-4 8-18 Uhr
12 hrs
Mon12:45-17:30HCI »
Wed12:45-17:30HCI »
Fri12:45-13:30HCI J 7 »
12:45-17:30HCI »
21.09.12:45-15:30HPH G 2 »
24.09.12:45-15:30HPV G 4 »
12.10.12:45-13:30HIL E 7 »
17.10.12:45-14:30HIL E 6 »
24.10.12:45-14:30HIL E 6 »
15.11.12:45-14:30HCP E 47.3 »
03.12.12:45-17:30HCP E 47.1 »
05.12.12:45-14:30HIT F 31.1 »
14:45-17:30HIT F 31.2 »
10.12.12:45-17:30HCI E 8 »
17.12.12:45-14:30HIL E 3 »
24.01.08:45-10:30HCI J 6 »
H. V. Schönberg, E. C. Meister
Bachelor Studies (Programme Regulations 2006)
3. Semester
Compulsory Subjects Examination Block I
NumberTitleTypeECTSHoursLecturers
529-0121-00LInorganic Chemistry I Information O3 credits2V + 1U
529-0121-00 VAnorganische Chemie I2 hrs
Mon08:45-10:30HCI G 3 »
A. Mezzetti
529-0121-00 UAnorganische Chemie I1 hrs
Wed11:45-12:30HCI D 2 »
11:45-12:30HCI D 6 »
11:45-12:30HCI D 8 »
11:45-12:30HCI E 2 »
11:45-12:30HCI G 7 »
11:45-12:30HCI J 8 »
A. Mezzetti
529-0221-00LOrganic Chemistry IO3 credits2V + 1U
529-0221-00 VOrganische Chemie I2 hrs
Wed09:45-11:30HPV G 4 »
H. Wennemers
529-0221-00 UOrganische Chemie I1 hrs
Mon10:45-11:30HCI D 4 »
10:45-11:30HCI D 6 »
10:45-11:30HCI E 2 »
10:45-11:30HCI E 8 »
10:45-11:30HCI F 2 »
10:45-11:30HCI H 2.1 »
Tue07:45-08:30HCI H 8.1 »
07:45-08:30HCI J 7 »
H. Wennemers
529-0422-00LPhysical Chemistry II: Chemical Reaction Kinetics Information O4 credits3V + 1U
529-0422-00 VPhysikalische Chemie II: Chemische Reaktionskinetik3 hrs
Tue08:45-09:30HCI J 3 »
Fri07:45-09:30HCI J 3 »
U. Hollenstein
529-0422-00 UPhysikalische Chemie II: Chemische Reaktionskinetik1 hrs
Mon07:45-08:30HCI D 4 »
07:45-08:30HCI D 6 »
07:45-08:30HCI E 2 »
07:45-08:30HCI F 2 »
07:45-08:30HCI J 3 »
07:45-08:30HCP E 47.2 »
Wed16:45-17:30HCI D 4 »
16:45-17:30HCI H 8.1 »
Fri10:45-11:30HCI D 4 »
10:45-11:30HCI D 6 »
10:45-11:30HCI E 8 »
10:45-11:30HCI F 8 »
10:45-11:30HIT H 42 »
11:15-12:00HG G 26.3 »
U. Hollenstein
402-0083-00LPhysics IO4 credits3V + 1U
402-0083-00 VPhysik I3 hrs
Wed13:45-14:30HPH G 1 »
Fri09:45-11:30HPH G 1 »
G. Dissertori
402-0083-00 UPhysik I
Mi 15-16 bzw. Mi 16-17 gemäss Gruppeneinteilung.
(Mi 16-17 hauptsächlich für einige Übungsgruppen aus Studiengängen des D-CHAB)
1 hrs
Tue11:45-12:30HCI D 6 »
Wed14:45-15:30HCI D 8 »
14:45-15:30HCI F 8 »
14:45-15:30HCI J 6 »
14:45-15:30HCI J 8 »
14:45-15:30HIL E 1 »
14:45-15:30HIL E 10.1 »
14:45-15:30HIL E 3 »
14:45-15:30HIL E 9 »
14:45-15:30HIT H 42 »
14:45-15:30HIT K 51 »
14:45-15:30HIT K 52 »
14:45-15:30HPH G 1 »
14:45-15:30HPH G 3 »
14:45-15:30HPV G 4 »
15:45-16:30HCI H 8.1 »
15:45-16:30HCI J 6 »
15:45-16:30HCI J 8 »
15:45-16:30HIL E 10.1 »
12.12.14:45-15:30HIT F 32 »
G. Dissertori
529-0051-00LAnalytical Chemistry IO3 credits3G
529-0051-00 GAnalytische Chemie I3 hrs
Wed07:45-09:30HCI G 3 »
Thu07:45-08:30HPH G 3 »
D. Günther, M.‑O. Ebert, G. Schwarz, R. Zenobi
401-0373-00LMathematics III: Partial Differential Equations Information O4 credits2V + 1U
401-0373-00 VMathematik III: Partielle Differentialgleichungen
findet ab 27.09.2018 im HCI J 7 statt
2 hrs
Thu09:45-11:30HCI J 7 »
20.09.09:45-11:30HCI J 6 »
C. Busch
401-0373-00 UMathematik III: Partielle Differentialgleichungen
Do 9-10 oder Do 12-13 gemäss Gruppeneinteilung
1 hrs
Thu08:45-09:30HCI D 6 »
08:45-09:30HCI D 8 »
08:45-09:30HCI J 7 »
11:45-12:30HCI D 8 »
11:45-12:30HCP E 47.4 »
11:45-12:30HIL F 10.3 »
20.09.08:45-09:30HCI J 6 »
11.12.17:45-19:30HIL E 5 »
C. Busch
Laboratory Courses
NumberTitleTypeECTSHoursLecturers
529-0129-00LInorganic and Organic Chemistry II Restricted registration - show details
Latest online enrolment is one week before the beginning of the semester.
O11 credits16P
529-0129-00 PAnorganische und Organische Chemie II16 hrs
Mon12:45-16:30HCI H 174 »
12:45-16:30HCI H 190.2 »
12:45-16:30HCI H 192.2 »
12:45-16:30HCI H 194.2 »
12:45-16:30HCI H 196.2 »
12:45-16:30HCI H 296.2 »
Tue12:45-16:30HCI H 174 »
12:45-16:30HCI H 192.2 »
12:45-16:30HCI H 194.2 »
12:45-16:30HCI H 196.2 »
12:45-16:30HCI H 296.2 »
Thu12:45-16:30HCI H 174 »
12:45-16:30HCI H 190.2 »
12:45-16:30HCI H 192.2 »
12:45-16:30HCI H 194.2 »
12:45-16:30HCI H 196.2 »
12:45-16:30HCI H 296.2 »
Fri12:45-16:30HCI H 174 »
12:45-16:30HCI H 190.2 »
12:45-16:30HCI H 192.2 »
12:45-16:30HCI H 194.2 »
12:45-16:30HCI H 196.2 »
12:45-16:30HCI H 296.2 »
20.09.15:45-17:30HCI J 7 »
21.09.12:45-16:30HCI G 7 »
A. Mezzetti, A. Togni
5. Semester
Compulsory Subjects
Examination block Thermodynamics and Transport Phenomena
NumberTitleTypeECTSHoursLecturers
529-0557-00LChemical Engineering ThermodynamicsO4 credits3G
529-0557-00 GChemical Engineering Thermodynamics3 hrs
Wed13:45-16:30HCI H 2.1 »
28.11.13:45-16:30HCI J 4 »
A. Butté
151-0917-00LMass TransferO4 credits2V + 2U
151-0917-00 VMass Transfer2 hrs
Wed10:15-12:00ML H 44 »
S. E. Pratsinis, V. Mavrantzas
151-0917-00 UMass Transfer
The exercise will start in the 2nd week of the Semester.
2 hrs
Tue13:15-15:00HG E 1.1 »
A. Güntner, M. R. Kholghy
529-0636-00LHeat Transport and Fluid Dynamics Restricted registration - show details O4 credits4G
529-0636-00 GWärmetransport und Strömungslehre Special students and auditors need a special permission from the lecturers.
Permission from lecturers required for all students.
Dienstag 15:00 - 17:00 Uhr.
Findet nur alle zwei Wochen statt.
4 hrs
Mon10:15-13:00HG D 5.2 »
Tue/2w15:15-17:00HG E 33.3 »
A. A. Kubik
Examination Block Reaction Engineering and Modelling
NumberTitleTypeECTSHoursLecturers
529-0632-00LHomogeneous Reaction EngineeringO4 credits3G
529-0632-00 GHomogeneous Reaction Engineering3 hrs
Tue09:45-11:30HCI H 8.1 »
Wed12:45-13:30HCI D 2 »
M. Morbidelli, T. Casalini
752-4001-00LMicrobiologyO2 credits2V
752-4001-00 VMikrobiologie2 hrs
Mon15:15-17:00ML D 28 »
M. Ackermann, M. Schuppler, J. Vorholt-Zambelli
401-0675-00LStatistical and Numerical Methods for Chemical EngineersO3 credits2V + 2U
401-0675-00 VStatistical and Numerical Methods for Chemical Engineers2 hrs
Wed08:15-10:00HG E 33.1 »
R. Käppeli, P. Müller
401-0675-00 UStatistical and Numerical Methods for Chemical Engineers2 hrs
Tue07:45-09:30HCI G 174 »
M. Sokolov
  •  Page  1  of  2 Next page Last page     All